Redding, CA

11:52 AM PDT on July 27, 2017 (GMT -0700)
Redding Municipal

Weather History for KRDD - July, 2013

Change the Weather History Date:

Friday, July 5, 2013

  Actual Average Record
Temperature  
Mean Temperature 90 °F -  
Max Temperature 100 °F 97 °F 112 °F (2007)
Min Temperature 80 °F 66 °F 58 °F (2000)
Degree Days  
Heating Degree Days 0    
Cooling Degree Days 25    
Growing Degree Days 40 (Base 50)    
Moisture  
Dew Point 46 °F    
Average Humidity 21    
Maximum Humidity 28    
Minimum Humidity 13    
Precipitation  
Precipitation 0.00 in 0.01 in 0.00 in (2017)
Month to date precipitation T 0.02  
Year to date precipitation 9.30 20.88  
Since 1 July precipitation T  
Sea Level Pressure  
Sea Level Pressure 29.62 in    
Wind  
Wind Speed 7 mph (WNW)    
Max Wind Speed 17 mph    
Max Gust Speed 22 mph    
Visibility 10 miles    
Events      
T = Trace of Precipitation, MM = Missing Value Source: NWS Daily Summary

Daily Weather History Graph

Daily Weather History Graph

Search for Another Location

Airport or City:

Trip Planner

Search our weather history database for the weather conditions in past years. The results will help you decide how hot, cold, wet, or windy it might be!

Date:

Astronomy

Jul. 05, 2013 Rise Set
Actual Time 5:44 AM PDT 8:42 PM PDT
Civil Twilight 5:11 AM PDT 9:15 PM PDT
Nautical Twilight 4:30 AM PDT 9:57 PM PDT
Astronomical Twilight 3:41 AM PDT 10:45 PM PDT
Moon 3:48 AM PDT (7/5) 6:41 PM PDT (7/5)
Length of Visible Light 16h 03m
Length of Day
14h 57m
Waning Crescent, 6% of the Moon is Illuminated
Jul 5
Waning Crescent
Jul 8
New
Jul 15
First Quarter
Jul 22
Full
Jul 29
Last Quarter

Hourly Weather History & Observations

Time (PDT) Temp. Heat Index Dew Point Humidity Pressure Visibility Wind Dir Wind Speed Gust Speed Precip Events Conditions
12:53 AM 84.0 °F - 44.1 °F 25% 29.61 in 10.0 mi NW 5.8 mph - N/A   Clear
1:53 AM 81.0 °F - 44.1 °F 27% 29.61 in 10.0 mi WNW 5.8 mph - N/A   Clear
2:53 AM 81.0 °F - 45.0 °F 28% 29.60 in 10.0 mi NW 6.9 mph - N/A   Clear
3:53 AM 82.0 °F - 45.0 °F 27% 29.60 in 10.0 mi NW 4.6 mph - N/A   Clear
4:53 AM 81.0 °F - 44.1 °F 27% 29.60 in 10.0 mi NNW 5.8 mph - N/A   Clear
5:53 AM 81.0 °F - 44.1 °F 27% 29.61 in 10.0 mi NNW 8.1 mph - N/A   Clear
6:53 AM 82.0 °F - 46.0 °F 28% 29.63 in 10.0 mi North 6.9 mph - N/A   Clear
7:53 AM 84.0 °F - 46.9 °F 27% 29.64 in 10.0 mi North 11.5 mph - N/A   Clear
8:53 AM 87.1 °F - 48.0 °F 26% 29.65 in 10.0 mi North 12.7 mph 18.4 mph N/A   Clear
9:53 AM 89.1 °F - 48.0 °F 24% 29.65 in 10.0 mi NNW 9.2 mph - N/A   Clear
10:53 AM 91.9 °F - 48.0 °F 22% 29.65 in 10.0 mi NNW 8.1 mph - N/A   Clear
11:53 AM 95.0 °F - 50.0 °F 22% 29.64 in 10.0 mi NNW 6.9 mph - N/A   Clear
12:53 PM 98.1 °F - 50.0 °F 20% 29.63 in 10.0 mi Variable 6.9 mph - N/A   Clear
1:53 PM 99.0 °F - 48.0 °F 18% 29.62 in 10.0 mi SSW 10.4 mph - N/A   Clear
2:53 PM 100.0 °F - 46.9 °F 16% 29.61 in 10.0 mi SSW 9.2 mph 17.3 mph N/A   Clear
3:53 PM 99.0 °F - 39.9 °F 13% 29.60 in 10.0 mi South 10.4 mph 17.3 mph N/A   Clear
4:53 PM 98.1 °F - 41.0 °F 14% 29.59 in 10.0 mi SSW 13.8 mph - N/A   Clear
5:53 PM 98.1 °F - 39.0 °F 13% 29.58 in 10.0 mi South 12.7 mph - N/A   Clear
6:53 PM 95.0 °F - 37.9 °F 14% 29.58 in 10.0 mi South 13.8 mph - N/A   Clear
7:53 PM 91.0 °F - 46.0 °F 21% 29.60 in 10.0 mi South 11.5 mph - N/A   Clear
8:53 PM 84.9 °F - 52.0 °F 32% 29.62 in 10.0 mi SE 4.6 mph - N/A   Clear
9:53 PM 82.0 °F - 52.0 °F 35% 29.65 in 10.0 mi Calm Calm - N/A   Clear
10:53 PM 80.1 °F 79.9 °F 53.1 °F 39% 29.67 in 10.0 mi Calm Calm - N/A   Clear
11:53 PM 78.1 °F - 54.0 °F 43% 29.68 in 10.0 mi Calm Calm - N/A   Clear